iso_date,epoch_date,Year,Hour,Min,DOY,POS_DOY,Lat,Lon,BP,Ts,Ta,has_bp,has_ts,has_ta,BuoyID,Buoy_Type,Buoy_Owner,Logistics,Hemisphere
2015-04-10T13:58:04Z,1428674285,2015,14,59,100.582,100.582,89.61032,-18.74094,-999.00,-1.78,-999.0,no,yes,no,35,unknown,unknown,unknown,North
2015-04-10T16:58:04Z,1428685085,2015,17,59,100.707,100.707,89.60585,-18.24698,-999.00,-1.78,-999.0,no,yes,no,35,unknown,unknown,unknown,North
2015-04-10T19:58:04Z,1428695885,2015,20,58,100.832,100.832,89.60121,-17.82813,-999.00,-1.78,-999.0,no,yes,no,35,unknown,unknown,unknown,North
2015-04-10T22:58:04Z,1428706685,2015,23,59,100.957,100.957,89.59583,-17.60611,-999.00,-1.78,-999.0,no,yes,no,35,unknown,unknown,unknown,North
2015-04-11T01:58:04Z,1428717485,2015,2,58,101.082,101.082,89.59075,-17.56855,-999.00,-1.78,-999.0,no,yes,no,35,unknown,unknown,unknown,North
2015-04-11T04:58:04Z,1428728285,2015,5,59,101.207,101.207,89.58606,-17.57124,-999.00,-1.77,-999.0,no,yes,no,35,unknown,unknown,unknown,North
2015-04-11T07:58:04Z,1428739085,2015,8,58,101.332,101.332,89.58064,-17.53231,-999.00,-1.77,-999.0,no,yes,no,35,unknown,unknown,unknown,North
2015-04-11T10:58:04Z,1428749885,2015,11,59,101.457,101.457,89.57286,-17.60991,-999.00,-1.78,-999.0,no,yes,no,35,unknown,unknown,unknown,North
2015-04-11T13:58:04Z,1428760685,2015,14,59,101.582,101.582,89.56404,-17.93571,-999.00,-1.78,-999.0,no,yes,no,35,unknown,unknown,unknown,North
2015-04-11T16:58:04Z,1428771485,2015,17,59,101.707,101.707,89.55612,-18.29453,-999.00,-1.77,-999.0,no,yes,no,35,unknown,unknown,unknown,North
2015-04-11T19:58:04Z,1428782285,2015,20,58,101.832,101.832,89.54795,-18.59571,-999.00,-1.77,-999.0,no,yes,no,35,unknown,unknown,unknown,North
2015-04-11T22:58:04Z,1428793085,2015,23,58,101.957,101.957,89.53905,-18.96073,-999.00,-1.77,-999.0,no,yes,no,35,unknown,unknown,unknown,North
2015-04-12T01:58:04Z,1428803885,2015,2,59,102.082,102.082,89.531,-19.3535,-999.00,-1.77,-999.0,no,yes,no,35,unknown,unknown,unknown,North
2015-04-12T04:58:04Z,1428814685,2015,5,59,102.207,102.207,89.52471,-19.75461,-999.00,-1.77,-999.0,no,yes,no,35,unknown,unknown,unknown,North
2015-04-12T07:58:04Z,1428825485,2015,8,59,102.332,102.332,89.52097,-19.91829,-999.00,-1.77,-999.0,no,yes,no,35,unknown,unknown,unknown,North
2015-04-12T10:58:04Z,1428836285,2015,11,59,102.457,102.457,89.51747,-20.08305,-999.00,-1.77,-999.0,no,yes,no,35,unknown,unknown,unknown,North
2015-04-12T13:58:04Z,1428847085,2015,14,59,102.582,102.582,89.51486,-20.26986,-999.00,-1.77,-999.0,no,yes,no,35,unknown,unknown,unknown,North
2015-04-12T16:58:04Z,1428857885,2015,17,59,102.707,102.707,89.51429,-20.31122,-999.00,-1.77,-999.0,no,yes,no,35,unknown,unknown,unknown,North
2015-04-12T19:58:04Z,1428868685,2015,20,58,102.832,102.832,89.51422,-20.31273,-999.00,-1.77,-999.0,no,yes,no,35,unknown,unknown,unknown,North
2015-04-12T22:58:04Z,1428879485,2015,23,59,102.957,102.957,89.51388,-20.28021,-999.00,-1.77,-999.0,no,yes,no,35,unknown,unknown,unknown,North
2015-04-13T01:58:04Z,1428890285,2015,2,59,103.082,103.082,89.51378,-20.28203,-999.00,-1.78,-999.0,no,yes,no,35,unknown,unknown,unknown,North
2015-04-13T04:58:04Z,1428901085,2015,5,59,103.207,103.207,89.51365,-20.27517,-999.00,-1.78,-999.0,no,yes,no,35,unknown,unknown,unknown,North
2015-04-13T07:58:04Z,1428911885,2015,8,58,103.332,103.332,89.51362,-20.27235,-999.00,-1.78,-999.0,no,yes,no,35,unknown,unknown,unknown,North
2015-04-13T10:58:04Z,1428922685,2015,11,59,103.457,103.457,89.51342,-20.26104,-999.00,-1.78,-999.0,no,yes,no,35,unknown,unknown,unknown,North
2015-04-13T13:58:04Z,1428933485,2015,14,59,103.582,103.582,89.51334,-20.2409,-999.00,-1.78,-999.0,no,yes,no,35,unknown,unknown,unknown,North
2015-04-13T16:58:04Z,1428944285,2015,17,59,103.707,103.707,89.5132,-20.24977,-999.00,-1.78,-999.0,no,yes,no,35,unknown,unknown,unknown,North
2015-04-13T17:58:33Z,1428947914,2015,18,58,103.749,103.749,89.51319,-20.25376,-999.00,-1.78,-999.0,no,yes,no,35,unknown,unknown,unknown,North
2015-04-13T19:58:04Z,1428955085,2015,20,59,103.832,103.832,89.51323,-20.25292,-999.00,-1.78,-999.0,no,yes,no,35,unknown,unknown,unknown,North
2015-04-13T21:59:02Z,1428962342,2015,22,59,103.916,103.916,89.51329,-20.25833,-999.00,-1.78,-999.0,no,yes,no,35,unknown,unknown,unknown,North
2015-04-13T23:58:33Z,1428969514,2015,24,59,103.999,103.999,89.51341,-20.27017,-999.00,-1.78,-999.0,no,yes,no,35,unknown,unknown,unknown,North
2015-04-14T01:58:04Z,1428976685,2015,2,58,104.082,104.082,89.51369,-20.29313,-999.00,-1.78,-999.0,no,yes,no,35,unknown,unknown,unknown,North
2015-04-14T03:59:02Z,1428983942,2015,4,59,104.166,104.166,89.51424,-20.36144,-999.00,-1.78,-999.0,no,yes,no,35,unknown,unknown,unknown,North
2015-04-14T05:58:33Z,1428991114,2015,6,59,104.249,104.249,89.51521,-20.45141,-999.00,-1.78,-999.0,no,yes,no,35,unknown,unknown,unknown,North
2015-04-14T07:58:04Z,1428998285,2015,8,58,104.332,104.332,89.5166,-20.57449,-999.00,-1.78,-999.0,no,yes,no,35,unknown,unknown,unknown,North
2015-04-14T09:59:02Z,1429005542,2015,10,59,104.416,104.416,89.51807,-20.6978,-999.00,-1.78,-999.0,no,yes,no,35,unknown,unknown,unknown,North
2015-04-14T11:58:33Z,1429012714,2015,12,59,104.499,104.499,89.51965,-20.83635,-999.00,-1.78,-999.0,no,yes,no,35,unknown,unknown,unknown,North
2015-04-14T13:58:04Z,1429019885,2015,14,58,104.582,104.582,89.5216,-21.04339,-999.00,-1.78,-999.0,no,yes,no,35,unknown,unknown,unknown,North
2015-04-14T15:59:02Z,1429027142,2015,16,59,104.666,104.666,89.52396,-21.3391,-999.00,-1.78,-999.0,no,yes,no,35,unknown,unknown,unknown,North
2015-04-14T17:58:33Z,1429034314,2015,18,59,104.749,104.749,89.5266,-21.72486,-999.00,-1.78,-999.0,no,yes,no,35,unknown,unknown,unknown,North
2015-04-14T19:58:04Z,1429041485,2015,20,59,104.832,104.832,89.52965,-22.12048,-999.00,-1.78,-999.0,no,yes,no,35,unknown,unknown,unknown,North
2015-04-14T21:59:02Z,1429048742,2015,22,59,104.916,104.916,89.53343,-22.56093,-999.00,-1.78,-999.0,no,yes,no,35,unknown,unknown,unknown,North
2015-04-14T23:58:33Z,1429055914,2015,24,59,104.999,104.999,89.53771,-23.01364,-999.00,-1.78,-999.0,no,yes,no,35,unknown,unknown,unknown,North
2015-04-15T01:58:04Z,1429063085,2015,2,59,105.082,105.082,89.543,-23.46199,-999.00,-1.78,-999.0,no,yes,no,35,unknown,unknown,unknown,North
2015-04-15T03:59:02Z,1429070342,2015,4,59,105.166,105.166,89.54846,-23.9295,-999.00,-1.78,-999.0,no,yes,no,35,unknown,unknown,unknown,North
2015-04-15T05:58:33Z,1429077514,2015,6,59,105.249,105.249,89.55385,-24.33664,-999.00,-1.78,-999.0,no,yes,no,35,unknown,unknown,unknown,North
2015-04-15T07:58:04Z,1429084685,2015,8,58,105.332,105.332,89.55902,-24.6453,-999.00,-1.78,-999.0,no,yes,no,35,unknown,unknown,unknown,North
2015-04-15T09:59:02Z,1429091942,2015,10,58,105.416,105.416,89.56376,-24.84842,-999.00,-1.78,-999.0,no,yes,no,35,unknown,unknown,unknown,North
2015-04-15T11:58:33Z,1429099114,2015,12,59,105.499,105.499,89.56828,-25.02656,-999.00,-1.78,-999.0,no,yes,no,35,unknown,unknown,unknown,North
2015-04-15T13:58:04Z,1429106285,2015,14,59,105.582,105.582,89.57291,-25.23134,-999.00,-1.78,-999.0,no,yes,no,35,unknown,unknown,unknown,North
2015-04-15T15:59:02Z,1429113542,2015,16,59,105.666,105.666,89.57784,-25.57498,-999.00,-1.78,-999.0,no,yes,no,35,unknown,unknown,unknown,North
2015-04-15T17:58:33Z,1429120714,2015,18,59,105.749,105.749,89.58338,-26.09586,-999.00,-1.78,-999.0,no,yes,no,35,unknown,unknown,unknown,North
2015-04-15T19:58:04Z,1429127885,2015,20,59,105.832,105.832,89.58936,-26.71858,-999.00,-1.78,-999.0,no,yes,no,35,unknown,unknown,unknown,North
2015-04-15T21:59:02Z,1429135142,2015,22,59,105.916,105.916,89.59589,-27.39226,-999.00,-1.78,-999.0,no,yes,no,35,unknown,unknown,unknown,North
2015-04-15T23:58:33Z,1429142314,2015,24,59,105.999,105.999,89.60248,-28.14935,-999.00,-1.78,-999.0,no,yes,no,35,unknown,unknown,unknown,North
2015-04-16T01:58:04Z,1429149485,2015,2,58,106.082,106.082,89.60845,-28.99026,-999.00,-1.78,-999.0,no,yes,no,35,unknown,unknown,unknown,North
2015-04-16T03:59:02Z,1429156742,2015,4,59,106.166,106.166,89.61396,-29.93507,-999.00,-1.78,-999.0,no,yes,no,35,unknown,unknown,unknown,North
2015-04-16T05:58:33Z,1429163914,2015,6,59,106.249,106.249,89.6202,-31.15878,-999.00,-1.78,-999.0,no,yes,no,35,unknown,unknown,unknown,North
2015-04-16T07:58:04Z,1429171085,2015,8,59,106.332,106.332,89.6262,-32.50481,-999.00,-1.78,-999.0,no,yes,no,35,unknown,unknown,unknown,North
2015-04-16T09:59:02Z,1429178342,2015,10,58,106.416,106.416,89.63199,-33.837,-999.00,-1.78,-999.0,no,yes,no,35,unknown,unknown,unknown,North
2015-04-16T11:58:33Z,1429185514,2015,12,59,106.499,106.499,89.63764,-35.1234,-999.00,-1.78,-999.0,no,yes,no,35,unknown,unknown,unknown,North
2015-04-16T13:58:04Z,1429192685,2015,14,59,106.582,106.582,89.64281,-36.35376,-999.00,-1.78,-999.0,no,yes,no,35,unknown,unknown,unknown,North
2015-04-16T15:59:02Z,1429199942,2015,16,58,106.666,106.666,89.64694,-37.54668,-999.00,-1.78,-999.0,no,yes,no,35,unknown,unknown,unknown,North
2015-04-16T17:58:33Z,1429207114,2015,18,59,106.749,106.749,89.65044,-38.78404,-999.00,-1.78,-999.0,no,yes,no,35,unknown,unknown,unknown,North
2015-04-16T19:58:04Z,1429214285,2015,20,59,106.832,106.832,89.65349,-40.00891,-999.00,-1.78,-999.0,no,yes,no,35,unknown,unknown,unknown,North
2015-04-16T21:59:02Z,1429221542,2015,22,58,106.916,106.916,89.6562,-41.20347,-999.00,-1.78,-999.0,no,yes,no,35,unknown,unknown,unknown,North
2015-04-16T23:58:33Z,1429228714,2015,24,59,106.999,106.999,89.6588,-42.40155,-999.00,-1.78,-999.0,no,yes,no,35,unknown,unknown,unknown,North
2015-04-17T01:58:04Z,1429235885,2015,2,59,107.082,107.082,89.66114,-43.62996,-999.00,-1.77,-999.0,no,yes,no,35,unknown,unknown,unknown,North
2015-04-17T03:59:02Z,1429243142,2015,4,58,107.166,107.166,89.66314,-44.90162,-999.00,-1.77,-999.0,no,yes,no,35,unknown,unknown,unknown,North
2015-04-17T05:58:33Z,1429250314,2015,6,59,107.249,107.249,89.66473,-46.40116,-999.00,-1.77,-999.0,no,yes,no,35,unknown,unknown,unknown,North
2015-04-17T07:58:04Z,1429257485,2015,8,58,107.332,107.332,89.6659,-48.0813,-999.00,-1.77,-999.0,no,yes,no,35,unknown,unknown,unknown,North
2015-04-17T09:59:02Z,1429264742,2015,10,59,107.416,107.416,89.66657,-49.79775,-999.00,-1.77,-999.0,no,yes,no,35,unknown,unknown,unknown,North
2015-04-17T11:58:33Z,1429271914,2015,12,59,107.499,107.499,89.66615,-51.78671,-999.00,-1.76,-999.0,no,yes,no,35,unknown,unknown,unknown,North
2015-04-17T13:58:04Z,1429279085,2015,14,59,107.582,107.582,89.66425,-53.83398,-999.00,-1.76,-999.0,no,yes,no,35,unknown,unknown,unknown,North
2015-04-17T15:59:02Z,1429286342,2015,16,59,107.666,107.666,89.66074,-55.73005,-999.00,-1.76,-999.0,no,yes,no,35,unknown,unknown,unknown,North
2015-04-17T17:58:33Z,1429293514,2015,18,58,107.749,107.749,89.65499,-57.50442,-999.00,-1.76,-999.0,no,yes,no,35,unknown,unknown,unknown,North
2015-04-17T19:58:04Z,1429300685,2015,20,59,107.832,107.832,89.64774,-58.96017,-999.00,-1.76,-999.0,no,yes,no,35,unknown,unknown,unknown,North
2015-04-17T21:59:02Z,1429307942,2015,22,59,107.916,107.916,89.63995,-60.1895,-999.00,-1.76,-999.0,no,yes,no,35,unknown,unknown,unknown,North
2015-04-17T23:58:33Z,1429315114,2015,24,59,107.999,107.999,89.63279,-61.12,-999.00,-1.75,-999.0,no,yes,no,35,unknown,unknown,unknown,North
2015-04-18T01:59:31Z,1429322371,2015,2,59,108.083,108.083,89.62642,-61.76826,-999.00,-1.75,-999.0,no,yes,no,35,unknown,unknown,unknown,North
2015-04-18T03:59:02Z,1429329542,2015,4,59,108.166,108.166,89.62067,-62.2217,-999.00,-1.75,-999.0,no,yes,no,35,unknown,unknown,unknown,North
2015-04-18T05:58:33Z,1429336714,2015,6,59,108.249,108.249,89.61518,-62.52096,-999.00,-1.75,-999.0,no,yes,no,35,unknown,unknown,unknown,North
2015-04-18T07:58:04Z,1429343885,2015,8,59,108.332,108.332,89.60965,-62.74494,-999.00,-1.75,-999.0,no,yes,no,35,unknown,unknown,unknown,North
2015-04-18T09:59:02Z,1429351142,2015,10,59,108.416,108.416,89.60464,-62.87067,-999.00,-1.75,-999.0,no,yes,no,35,unknown,unknown,unknown,North
2015-04-18T11:58:33Z,1429358314,2015,12,59,108.499,108.499,89.60047,-62.84059,-999.00,-1.75,-999.0,no,yes,no,35,unknown,unknown,unknown,North
2015-04-18T13:58:04Z,1429365485,2015,14,59,108.582,108.582,89.59674,-62.63504,-999.00,-1.75,-999.0,no,yes,no,35,unknown,unknown,unknown,North
2015-04-18T15:59:02Z,1429372742,2015,16,59,108.666,108.666,89.59332,-62.35931,-999.00,-1.75,-999.0,no,yes,no,35,unknown,unknown,unknown,North
2015-04-18T17:58:33Z,1429379914,2015,18,59,108.749,108.749,89.59014,-62.2534,-999.00,-1.75,-999.0,no,yes,no,35,unknown,unknown,unknown,North
2015-04-18T19:58:04Z,1429387085,2015,20,58,108.832,108.832,89.5867,-62.37456,-999.00,-1.75,-999.0,no,yes,no,35,unknown,unknown,unknown,North
2015-04-18T21:59:02Z,1429394342,2015,22,59,108.916,108.916,89.58309,-62.78966,-999.00,-1.75,-999.0,no,yes,no,35,unknown,unknown,unknown,North
2015-04-18T23:58:33Z,1429401514,2015,24,59,108.999,108.999,89.5775,-62.98862,-999.00,-1.75,-999.0,no,yes,no,35,unknown,unknown,unknown,North
2015-04-19T01:58:04Z,1429408685,2015,2,59,109.082,109.082,89.56952,-63.21622,-999.00,-1.75,-999.0,no,yes,no,35,unknown,unknown,unknown,North
2015-04-19T03:59:02Z,1429415942,2015,4,59,109.166,109.166,89.55893,-63.34914,-999.00,-1.75,-999.0,no,yes,no,35,unknown,unknown,unknown,North
2015-04-19T05:58:33Z,1429423114,2015,6,59,109.249,109.249,89.54572,-63.36557,-999.00,-1.75,-999.0,no,yes,no,35,unknown,unknown,unknown,North
2015-04-19T07:58:04Z,1429430285,2015,8,59,109.332,109.332,89.53162,-63.31364,-999.00,-1.75,-999.0,no,yes,no,35,unknown,unknown,unknown,North
2015-04-19T09:59:02Z,1429437542,2015,10,59,109.416,109.416,89.51699,-63.17705,-999.00,-1.75,-999.0,no,yes,no,35,unknown,unknown,unknown,North
2015-04-19T11:58:33Z,1429444714,2015,12,58,109.499,109.499,89.50301,-62.84106,-999.00,-1.75,-999.0,no,yes,no,35,unknown,unknown,unknown,North
2015-04-19T13:58:04Z,1429451885,2015,14,58,109.582,109.582,89.49043,-62.34584,-999.00,-1.75,-999.0,no,yes,no,35,unknown,unknown,unknown,North
2015-04-19T15:59:02Z,1429459142,2015,16,59,109.666,109.666,89.47935,-61.76903,-999.00,-1.75,-999.0,no,yes,no,35,unknown,unknown,unknown,North
2015-04-19T17:58:33Z,1429466314,2015,18,59,109.749,109.749,89.46893,-61.14232,-999.00,-1.75,-999.0,no,yes,no,35,unknown,unknown,unknown,North
2015-04-19T19:59:31Z,1429473571,2015,20,59,109.833,109.833,89.45889,-60.4465,-999.00,-1.75,-999.0,no,yes,no,35,unknown,unknown,unknown,North
2015-04-19T21:59:02Z,1429480742,2015,22,59,109.916,109.916,89.44926,-59.87419,-999.00,-1.76,-999.0,no,yes,no,35,unknown,unknown,unknown,North
2015-04-19T23:58:33Z,1429487914,2015,24,59,109.999,109.999,89.43875,-59.3552,-999.00,-1.76,-999.0,no,yes,no,35,unknown,unknown,unknown,North
2015-04-20T01:58:04Z,1429495085,2015,2,59,110.082,110.082,89.42803,-58.82708,-999.00,-1.76,-999.0,no,yes,no,35,unknown,unknown,unknown,North
2015-04-20T03:59:02Z,1429502342,2015,4,59,110.166,110.166,89.41691,-58.28008,-999.00,-1.76,-999.0,no,yes,no,35,unknown,unknown,unknown,North
2015-04-20T05:58:33Z,1429509514,2015,6,59,110.249,110.249,89.40601,-57.67668,-999.00,-1.76,-999.0,no,yes,no,35,unknown,unknown,unknown,North
2015-04-20T07:58:04Z,1429516685,2015,8,58,110.332,110.332,89.39609,-56.99544,-999.00,-1.76,-999.0,no,yes,no,35,unknown,unknown,unknown,North
2015-04-20T09:59:02Z,1429523942,2015,10,59,110.416,110.416,89.38724,-56.19276,-999.00,-1.76,-999.0,no,yes,no,35,unknown,unknown,unknown,North
2015-04-20T11:58:33Z,1429531114,2015,12,58,110.499,110.499,89.37936,-55.30362,-999.00,-1.76,-999.0,no,yes,no,35,unknown,unknown,unknown,North
2015-04-20T13:58:04Z,1429538285,2015,14,58,110.582,110.582,89.37217,-54.44327,-999.00,-1.76,-999.0,no,yes,no,35,unknown,unknown,unknown,North
2015-04-20T15:59:02Z,1429545542,2015,16,59,110.666,110.666,89.36482,-53.64227,-999.00,-1.76,-999.0,no,yes,no,35,unknown,unknown,unknown,North
2015-04-20T17:58:33Z,1429552714,2015,18,59,110.749,110.749,89.35768,-52.8634,-999.00,-1.76,-999.0,no,yes,no,35,unknown,unknown,unknown,North
2015-04-20T19:58:04Z,1429559885,2015,20,59,110.832,110.832,89.35148,-52.12633,-999.00,-1.76,-999.0,no,yes,no,35,unknown,unknown,unknown,North
2015-04-20T21:59:02Z,1429567142,2015,22,59,110.916,110.916,89.3467,-51.50863,-999.00,-1.76,-999.0,no,yes,no,35,unknown,unknown,unknown,North
2015-04-20T23:58:33Z,1429574314,2015,24,58,110.999,110.999,89.3415,-51.08511,-999.00,-1.77,-999.0,no,yes,no,35,unknown,unknown,unknown,North
2015-04-21T01:58:04Z,1429581485,2015,2,58,111.082,111.082,89.33585,-50.83829,-999.00,-1.77,-999.0,no,yes,no,35,unknown,unknown,unknown,North
2015-04-21T03:59:02Z,1429588742,2015,4,59,111.166,111.166,89.32957,-50.76674,-999.00,-1.77,-999.0,no,yes,no,35,unknown,unknown,unknown,North
2015-04-21T05:58:33Z,1429595914,2015,6,58,111.249,111.249,89.323,-50.75527,-999.00,-1.77,-999.0,no,yes,no,35,unknown,unknown,unknown,North
2015-04-21T07:58:04Z,1429603085,2015,8,59,111.332,111.332,89.31527,-50.67071,-999.00,-1.77,-999.0,no,yes,no,35,unknown,unknown,unknown,North
2015-04-21T09:59:02Z,1429610342,2015,10,58,111.416,111.416,89.30743,-50.54834,-999.00,-1.77,-999.0,no,yes,no,35,unknown,unknown,unknown,North
2015-04-21T11:58:33Z,1429617514,2015,12,58,111.499,111.499,89.2999,-50.41605,-999.00,-1.77,-999.0,no,yes,no,35,unknown,unknown,unknown,North
2015-04-21T13:58:04Z,1429624685,2015,14,58,111.582,111.582,89.29266,-50.26115,-999.00,-1.76,-999.0,no,yes,no,35,unknown,unknown,unknown,North
2015-04-21T15:59:02Z,1429631942,2015,16,59,111.666,111.666,89.28543,-50.08915,-999.00,-1.76,-999.0,no,yes,no,35,unknown,unknown,unknown,North
2015-04-21T17:58:33Z,1429639114,2015,18,59,111.749,111.749,89.27765,-49.88118,-999.00,-1.76,-999.0,no,yes,no,35,unknown,unknown,unknown,North
2015-04-21T19:59:31Z,1429646371,2015,20,59,111.833,111.833,89.26934,-49.6055,-999.00,-1.76,-999.0,no,yes,no,35,unknown,unknown,unknown,North
2015-04-21T21:59:02Z,1429653542,2015,22,59,111.916,111.916,89.26116,-49.25951,-999.00,-1.76,-999.0,no,yes,no,35,unknown,unknown,unknown,North
2015-04-21T23:58:33Z,1429660714,2015,24,58,111.999,111.999,89.25342,-48.86369,-999.00,-1.76,-999.0,no,yes,no,35,unknown,unknown,unknown,North
2015-04-22T01:58:04Z,1429667885,2015,2,59,112.082,112.082,89.24641,-48.50732,-999.00,-1.76,-999.0,no,yes,no,35,unknown,unknown,unknown,North
2015-04-22T03:59:02Z,1429675142,2015,4,59,112.166,112.166,89.24023,-48.18445,-999.00,-1.76,-999.0,no,yes,no,35,unknown,unknown,unknown,North
2015-04-22T05:58:33Z,1429682314,2015,6,59,112.249,112.249,89.23494,-47.98414,-999.00,-1.76,-999.0,no,yes,no,35,unknown,unknown,unknown,North
2015-04-22T07:58:04Z,1429689485,2015,8,59,112.332,112.332,89.23033,-47.96629,-999.00,-1.76,-999.0,no,yes,no,35,unknown,unknown,unknown,North
2015-04-22T09:59:02Z,1429696742,2015,10,59,112.416,112.416,89.22383,-48.16966,-999.00,-1.76,-999.0,no,yes,no,35,unknown,unknown,unknown,North
2015-04-22T11:58:33Z,1429703914,2015,12,59,112.499,112.499,89.21566,-48.44047,-999.00,-1.76,-999.0,no,yes,no,35,unknown,unknown,unknown,North
2015-04-22T13:58:04Z,1429711085,2015,14,59,112.582,112.582,89.20658,-48.64607,-999.00,-1.76,-999.0,no,yes,no,35,unknown,unknown,unknown,North
2015-04-22T15:59:02Z,1429718342,2015,16,59,112.666,112.666,89.19793,-48.72939,-999.00,-1.76,-999.0,no,yes,no,35,unknown,unknown,unknown,North
2015-04-22T17:58:33Z,1429725514,2015,18,58,112.749,112.749,89.19037,-48.69058,-999.00,-1.76,-999.0,no,yes,no,35,unknown,unknown,unknown,North
2015-04-22T19:58:04Z,1429732685,2015,20,58,112.832,112.832,89.18354,-48.55696,-999.00,-1.76,-999.0,no,yes,no,35,unknown,unknown,unknown,North
2015-04-22T21:59:02Z,1429739942,2015,22,58,112.916,112.916,89.17714,-48.30432,-999.00,-1.76,-999.0,no,yes,no,35,unknown,unknown,unknown,North
2015-04-22T23:58:33Z,1429747114,2015,24,59,112.999,112.999,89.17016,-47.98224,-999.00,-1.76,-999.0,no,yes,no,35,unknown,unknown,unknown,North
2015-04-23T01:58:04Z,1429754285,2015,2,58,113.082,113.082,89.16245,-47.59805,-999.00,-1.76,-999.0,no,yes,no,35,unknown,unknown,unknown,North
2015-04-23T03:59:02Z,1429761542,2015,4,59,113.166,113.166,89.15414,-47.18266,-999.00,-1.76,-999.0,no,yes,no,35,unknown,unknown,unknown,North
2015-04-23T05:58:33Z,1429768714,2015,6,59,113.249,113.249,89.14548,-46.75386,-999.00,-1.76,-999.0,no,yes,no,35,unknown,unknown,unknown,North
2015-04-23T07:58:04Z,1429775885,2015,8,58,113.332,113.332,89.13707,-46.34699,-999.00,-1.76,-999.0,no,yes,no,35,unknown,unknown,unknown,North
2015-04-23T09:59:02Z,1429783142,2015,10,59,113.416,113.416,89.1279,-45.96722,-999.00,-1.76,-999.0,no,yes,no,35,unknown,unknown,unknown,North
2015-04-23T11:58:33Z,1429790314,2015,12,58,113.499,113.499,89.11819,-45.64929,-999.00,-1.76,-999.0,no,yes,no,35,unknown,unknown,unknown,North
2015-04-23T13:59:31Z,1429797571,2015,14,59,113.583,113.583,89.10882,-45.38363,-999.00,-1.76,-999.0,no,yes,no,35,unknown,unknown,unknown,North
2015-04-23T15:59:02Z,1429804742,2015,16,59,113.666,113.666,89.10055,-45.11116,-999.00,-1.76,-999.0,no,yes,no,35,unknown,unknown,unknown,North
2015-04-23T17:58:33Z,1429811914,2015,18,59,113.749,113.749,89.09358,-44.80747,-999.00,-1.76,-999.0,no,yes,no,35,unknown,unknown,unknown,North
2015-04-23T19:58:04Z,1429819085,2015,20,59,113.832,113.832,89.0884,-44.51665,-999.00,-1.77,-999.0,no,yes,no,35,unknown,unknown,unknown,North
2015-04-23T21:59:02Z,1429826342,2015,22,59,113.916,113.916,89.08485,-44.17219,-999.00,-1.77,-999.0,no,yes,no,35,unknown,unknown,unknown,North
2015-04-23T23:58:33Z,1429833514,2015,24,59,113.999,113.999,89.08226,-43.75609,-999.00,-1.77,-999.0,no,yes,no,35,unknown,unknown,unknown,North
2015-04-24T01:58:04Z,1429840685,2015,2,59,114.082,114.082,89.07997,-43.31858,-999.00,-1.77,-999.0,no,yes,no,35,unknown,unknown,unknown,North
2015-04-24T03:59:02Z,1429847942,2015,4,59,114.166,114.166,89.07825,-42.81827,-999.00,-1.77,-999.0,no,yes,no,35,unknown,unknown,unknown,North
2015-04-24T05:58:33Z,1429855114,2015,6,59,114.249,114.249,89.07648,-42.31449,-999.00,-1.77,-999.0,no,yes,no,35,unknown,unknown,unknown,North
2015-04-24T07:58:04Z,1429862285,2015,8,58,114.332,114.332,89.07422,-41.82441,-999.00,-1.77,-999.0,no,yes,no,35,unknown,unknown,unknown,North
2015-04-24T09:59:02Z,1429869542,2015,10,59,114.416,114.416,89.0715,-41.33264,-999.00,-1.77,-999.0,no,yes,no,35,unknown,unknown,unknown,North
2015-04-24T11:58:33Z,1429876714,2015,12,58,114.499,114.499,89.0682,-40.82346,-999.00,-1.76,-999.0,no,yes,no,35,unknown,unknown,unknown,North
2015-04-24T13:58:04Z,1429883885,2015,14,58,114.582,114.582,89.06433,-40.29035,-999.00,-1.76,-999.0,no,yes,no,35,unknown,unknown,unknown,North
2015-04-24T15:59:02Z,1429891142,2015,16,59,114.666,114.666,89.06002,-39.73045,-999.00,-1.76,-999.0,no,yes,no,35,unknown,unknown,unknown,North
2015-04-24T17:58:33Z,1429898314,2015,18,59,114.749,114.749,89.0556,-39.15829,-999.00,-1.76,-999.0,no,yes,no,35,unknown,unknown,unknown,North
2015-04-24T19:58:04Z,1429905485,2015,20,59,114.832,114.832,89.05082,-38.56317,-999.00,-1.76,-999.0,no,yes,no,35,unknown,unknown,unknown,North
2015-04-24T21:59:02Z,1429912742,2015,22,59,114.916,114.916,89.04526,-37.95227,-999.00,-1.76,-999.0,no,yes,no,35,unknown,unknown,unknown,North
2015-04-24T23:58:33Z,1429919914,2015,24,58,114.999,114.999,89.03881,-37.35295,-999.00,-1.77,-999.0,no,yes,no,35,unknown,unknown,unknown,North
2015-04-25T01:58:04Z,1429927085,2015,2,59,115.082,115.082,89.03179,-36.7489,-999.00,-1.77,-999.0,no,yes,no,35,unknown,unknown,unknown,North
2015-04-25T03:59:02Z,1429934342,2015,4,59,115.166,115.166,89.02487,-36.16338,-999.00,-1.77,-999.0,no,yes,no,35,unknown,unknown,unknown,North
2015-04-25T05:58:33Z,1429941514,2015,6,59,115.249,115.249,89.01854,-35.58,-999.00,-1.77,-999.0,no,yes,no,35,unknown,unknown,unknown,North
2015-04-25T07:58:04Z,1429948685,2015,8,58,115.332,115.332,89.01287,-34.96694,-999.00,-1.77,-999.0,no,yes,no,35,unknown,unknown,unknown,North
2015-04-25T09:59:02Z,1429955942,2015,10,58,115.416,115.416,89.00727,-34.30393,-999.00,-1.77,-999.0,no,yes,no,35,unknown,unknown,unknown,North
2015-04-25T11:58:33Z,1429963114,2015,12,58,115.499,115.499,89.00074,-33.57525,-999.00,-1.77,-999.0,no,yes,no,35,unknown,unknown,unknown,North